Time,TemperatureF,DewpointF,PressureIn,WindDirection,WindDirectionDegrees,WindSpeedMPH,WindSpeedGustMPH,Humidity,HourlyPrecipIn,Conditions,Clouds,dailyrainin,SolarRadiationWatts/m^2,SoftwareType,DateUTC
2013-07-26 00:02:00,59.9,59.9,29.94,South,169,0.0,0.0,100,0.00,RA,,0.00,0.0,WeatherDisplay:10.37,2013-07-26 05:02:00,
2013-07-26 00:07:00,59.9,59.9,29.94,SSW,200,0.0,0.0,100,0.00,RA,,0.00,0.0,WeatherDisplay:10.37,2013-07-26 05:07:00,
2013-07-26 00:12:00,59.9,59.9,29.94,SSW,200,0.0,0.0,100,0.00,SCT,,0.00,0.0,WeatherDisplay:10.37,2013-07-26 05:12:00,
2013-07-26 00:17:00,59.9,59.9,29.94,SSW,200,0.0,0.0,100,0.00,SCT,,0.00,0.0,WeatherDisplay:10.37,2013-07-26 05:17:00,
2013-07-26 00:22:00,59.7,59.7,29.94,SSW,200,0.0,0.0,100,0.00,SCT,,0.00,0.0,WeatherDisplay:10.37,2013-07-26 05:22:00,
2013-07-26 00:27:00,59.7,59.7,29.94,SSW,200,0.0,0.0,100,0.00,SCT,,0.00,0.0,WeatherDisplay:10.37,2013-07-26 05:27:00,
2013-07-26 00:32:00,59.7,59.7,29.94,SSW,200,0.0,0.0,100,0.00,BKN,,0.00,0.0,WeatherDisplay:10.37,2013-07-26 05:32:00,
2013-07-26 00:37:00,59.7,59.7,29.94,SSW,200,0.0,0.0,100,0.00,BKN,,0.00,0.0,WeatherDisplay:10.37,2013-07-26 05:37:00,
2013-07-26 00:42:00,59.7,59.7,29.94,SSW,194,0.0,0.0,100,0.00,SCT,,0.00,0.0,WeatherDisplay:10.37,2013-07-26 05:42:00,
2013-07-26 00:47:00,59.7,59.7,29.91,SSW,194,0.0,0.0,100,0.00,SCT,,0.00,0.0,WeatherDisplay:10.37,2013-07-26 05:47:00,
2013-07-26 00:52:00,59.7,59.7,29.91,SSW,194,0.0,0.0,100,0.00,SCT,,0.00,0.0,WeatherDisplay:10.37,2013-07-26 05:52:00,
2013-07-26 00:57:00,59.7,59.7,29.91,SSW,206,0.0,0.0,100,0.00,SCT,,0.00,0.0,WeatherDisplay:10.37,2013-07-26 05:57:00,
2013-07-26 01:02:00,59.7,59.7,29.91,SSW,206,0.0,0.0,100,0.00,SCT,,0.00,0.0,WeatherDisplay:10.37,2013-07-26 06:02:00,
2013-07-26 01:07:00,59.7,59.7,29.91,South,190,0.0,0.0,100,0.00,SCT,,0.00,0.0,WeatherDisplay:10.37,2013-07-26 06:07:00,
2013-07-26 01:12:00,59.7,59.7,29.91,South,190,0.0,0.0,100,0.00,SCT,,0.00,0.0,WeatherDisplay:10.37,2013-07-26 06:12:00,
2013-07-26 01:17:00,59.7,59.7,29.91,South,190,0.0,0.0,100,0.00,SCT,,0.00,0.0,WeatherDisplay:10.37,2013-07-26 06:17:00,
2013-07-26 01:22:00,59.5,59.5,29.91,South,190,0.0,0.0,100,0.00,SCT,,0.00,0.0,WeatherDisplay:10.37,2013-07-26 06:22:00,
2013-07-26 01:27:00,59.5,59.5,29.91,South,190,0.0,0.0,100,0.00,SCT,,0.00,0.0,WeatherDisplay:10.37,2013-07-26 06:27:00,
2013-07-26 01:32:00,59.5,59.5,29.91,South,190,0.0,0.0,100,0.00,SCT,,0.00,0.0,WeatherDisplay:10.37,2013-07-26 06:32:00,
2013-07-26 01:37:00,59.5,59.5,29.91,South,190,0.0,0.0,100,0.00,SCT,,0.00,0.0,WeatherDisplay:10.37,2013-07-26 06:37:00,
2013-07-26 01:42:00,59.5,59.5,29.91,South,190,0.0,0.0,100,0.00,SCT,,0.00,0.0,WeatherDisplay:10.37,2013-07-26 06:42:00,
2013-07-26 01:47:00,59.4,59.4,29.91,South,187,0.0,0.0,100,0.00,SCT,,0.00,0.0,WeatherDisplay:10.37,2013-07-26 06:47:00,
2013-07-26 01:52:00,59.4,59.4,29.91,South,187,0.0,0.0,100,0.00,CLR,,0.00,0.0,WeatherDisplay:10.37,2013-07-26 06:52:00,
2013-07-26 01:57:00,59.2,59.2,29.91,South,187,0.0,0.0,100,0.00,CLR,,0.00,0.0,WeatherDisplay:10.37,2013-07-26 06:57:00,
2013-07-26 02:02:00,59.0,59.0,29.91,South,187,0.0,0.0,100,0.00,CLR,,0.00,0.0,WeatherDisplay:10.37,2013-07-26 07:02:00,
2013-07-26 02:07:00,58.6,58.6,29.91,South,187,0.0,0.0,100,0.00,CLR,,0.00,0.0,WeatherDisplay:10.37,2013-07-26 07:07:00,
2013-07-26 02:12:00,58.6,58.6,29.91,South,187,0.0,0.0,100,0.00,CLR,,0.00,0.0,WeatherDisplay:10.37,2013-07-26 07:12:00,
2013-07-26 02:17:00,58.5,58.5,29.91,South,187,0.0,0.0,100,0.00,CLR,,0.00,0.0,WeatherDisplay:10.37,2013-07-26 07:17:00,
2013-07-26 02:22:00,58.3,58.3,29.91,South,187,0.0,0.0,100,0.00,CLR,,0.00,0.0,WeatherDisplay:10.37,2013-07-26 07:22:00,
2013-07-26 02:27:00,58.1,58.1,29.91,South,187,0.0,0.0,100,0.00,CLR,,0.00,0.0,WeatherDisplay:10.37,2013-07-26 07:27:00,
2013-07-26 02:32:00,57.9,57.9,29.91,South,187,0.0,0.0,100,0.00,CLR,,0.00,0.0,WeatherDisplay:10.37,2013-07-26 07:32:00,
2013-07-26 02:37:00,57.7,57.7,29.91,South,187,0.0,0.0,100,0.00,CLR,,0.00,0.0,WeatherDisplay:10.37,2013-07-26 07:37:00,
2013-07-26 02:42:00,57.6,57.6,29.91,South,187,0.0,0.0,100,0.00,CLR,,0.00,0.0,WeatherDisplay:10.37,2013-07-26 07:42:00,
2013-07-26 02:47:00,57.4,57.4,29.91,South,187,0.0,0.0,100,0.00,CLR,,0.00,0.0,WeatherDisplay:10.37,2013-07-26 07:47:00,
2013-07-26 02:52:00,57.4,57.4,29.91,South,187,0.0,0.0,100,0.00,CLR,,0.00,0.0,WeatherDisplay:10.37,2013-07-26 07:52:00,
2013-07-26 02:57:00,57.4,57.4,29.91,South,187,0.0,0.0,100,0.00,CLR,,0.00,0.0,WeatherDisplay:10.37,2013-07-26 07:57:00,
2013-07-26 03:02:00,57.6,57.6,29.91,South,187,0.0,0.0,100,0.00,BKN,,0.00,0.0,WeatherDisplay:10.37,2013-07-26 08:02:00,
2013-07-26 03:07:00,57.7,57.7,29.91,South,187,0.0,0.0,100,0.00,BKN,,0.00,0.0,WeatherDisplay:10.37,2013-07-26 08:07:00,
2013-07-26 03:12:00,58.1,58.1,29.91,South,187,0.0,0.0,100,0.00,BKN,,0.00,0.0,WeatherDisplay:10.37,2013-07-26 08:12:00,
2013-07-26 03:17:00,58.3,58.3,29.88,South,187,0.0,0.0,100,0.00,BKN,,0.00,0.0,WeatherDisplay:10.37,2013-07-26 08:17:00,
2013-07-26 03:22:00,58.5,58.5,29.88,South,187,0.0,0.0,100,0.00,BKN,,0.00,0.0,WeatherDisplay:10.37,2013-07-26 08:22:00,
2013-07-26 03:27:00,58.6,58.6,29.88,South,187,0.0,0.0,100,0.00,BKN,,0.00,0.0,WeatherDisplay:10.37,2013-07-26 08:27:00,
2013-07-26 03:32:00,58.8,58.8,29.88,South,187,0.0,0.0,100,0.00,OVC,,0.00,0.0,WeatherDisplay:10.37,2013-07-26 08:32:00,
2013-07-26 03:37:00,59.0,59.0,29.88,South,187,0.0,0.0,100,0.00,OVC,,0.00,0.0,WeatherDisplay:10.37,2013-07-26 08:37:00,
2013-07-26 03:42:00,59.2,59.2,29.88,South,187,0.0,0.0,100,0.00,OVC,,0.00,0.0,WeatherDisplay:10.37,2013-07-26 08:42:00,
2013-07-26 03:47:00,59.4,59.4,29.88,South,187,0.0,0.0,100,0.00,OVC,,0.00,0.0,WeatherDisplay:10.37,2013-07-26 08:47:00,
2013-07-26 03:52:00,59.4,59.4,29.88,South,187,0.0,0.0,100,0.00,OVC,,0.00,0.0,WeatherDisplay:10.37,2013-07-26 08:52:00,
2013-07-26 03:57:00,59.4,59.4,29.88,SSW,199,0.0,0.0,100,0.00,OVC,,0.00,0.0,WeatherDisplay:10.37,2013-07-26 08:57:00,
2013-07-26 04:02:00,59.5,59.5,29.88,SSW,208,0.0,0.0,100,0.00,OVC,,0.00,0.0,WeatherDisplay:10.37,2013-07-26 09:02:00,
2013-07-26 04:07:00,59.5,59.5,29.88,SSW,192,0.0,0.0,100,0.00,OVC,,0.00,0.0,WeatherDisplay:10.37,2013-07-26 09:07:00,
2013-07-26 04:12:00,59.5,59.5,29.88,South,177,0.0,0.0,100,0.00,OVC,,0.00,0.0,WeatherDisplay:10.37,2013-07-26 09:12:00,
2013-07-26 04:17:00,59.5,59.5,29.88,SW,220,0.0,0.0,100,0.00,OVC,,0.00,0.0,WeatherDisplay:10.37,2013-07-26 09:17:00,
2013-07-26 04:22:00,59.5,59.5,29.88,South,190,0.0,0.0,100,0.00,OVC,,0.00,0.0,WeatherDisplay:10.37,2013-07-26 09:22:00,
2013-07-26 04:27:00,59.7,59.7,29.88,South,190,0.0,0.0,100,0.00,OVC,,0.00,0.0,WeatherDisplay:10.37,2013-07-26 09:27:00,
2013-07-26 04:32:00,59.7,59.7,29.88,South,191,0.0,0.0,100,0.00,OVC,,0.00,0.0,WeatherDisplay:10.37,2013-07-26 09:32:00,
2013-07-26 04:37:00,59.7,59.7,29.88,South,191,0.0,0.0,100,0.00,OVC,,0.00,0.0,WeatherDisplay:10.37,2013-07-26 09:37:00,
2013-07-26 04:42:00,59.7,59.7,29.88,South,191,0.0,0.0,100,0.00,OVC,,0.00,0.0,WeatherDisplay:10.37,2013-07-26 09:42:00,
2013-07-26 04:47:00,59.7,59.7,29.88,SSW,196,0.0,0.0,100,0.00,OVC,,0.00,0.0,WeatherDisplay:10.37,2013-07-26 09:47:00,
2013-07-26 04:52:00,59.7,59.7,29.88,SSW,196,0.0,0.0,100,0.00,OVC,,0.00,0.0,WeatherDisplay:10.37,2013-07-26 09:52:00,
2013-07-26 04:57:00,59.7,59.7,29.88,SSW,206,4.6,0.0,100,0.00,OVC,,0.00,0.0,WeatherDisplay:10.37,2013-07-26 09:57:00,
2013-07-26 05:02:00,59.7,59.7,29.88,SSW,213,2.3,0.0,100,0.00,OVC,,0.00,0.0,WeatherDisplay:10.37,2013-07-26 10:02:00,
2013-07-26 05:07:00,59.7,59.7,29.88,SSW,195,5.8,0.0,100,0.00,OVC,,0.00,0.0,WeatherDisplay:10.37,2013-07-26 10:07:00,
2013-07-26 05:12:00,59.7,59.7,29.88,SW,223,0.0,0.0,100,0.00,OVC,,0.00,0.0,WeatherDisplay:10.37,2013-07-26 10:12:00,
2013-07-26 05:17:00,59.7,59.7,29.88,South,177,3.5,3.5,100,0.00,OVC,,0.00,0.0,WeatherDisplay:10.37,2013-07-26 10:17:00,
2013-07-26 05:22:00,59.7,59.7,29.88,WSW,257,3.5,3.5,100,0.00,OVC,,0.00,0.0,WeatherDisplay:10.37,2013-07-26 10:22:00,
2013-07-26 05:27:00,59.9,59.9,29.88,SW,219,3.5,0.0,100,0.00,OVC,,0.00,0.0,WeatherDisplay:10.37,2013-07-26 10:27:00,
2013-07-26 05:32:00,59.9,59.9,29.88,SSW,197,4.6,4.6,100,0.00,OVC,,0.00,0.0,WeatherDisplay:10.37,2013-07-26 10:32:00,
2013-07-26 05:37:00,59.9,59.9,29.88,South,189,5.8,5.8,100,0.00,OVC,,0.00,0.0,WeatherDisplay:10.37,2013-07-26 10:37:00,
2013-07-26 05:42:00,60.1,60.1,29.88,South,190,3.5,3.5,100,0.00,OVC,,0.00,0.0,WeatherDisplay:10.37,2013-07-26 10:42:00,
2013-07-26 05:47:00,60.1,60.1,29.88,WSW,237,5.8,0.0,100,0.00,OVC,,0.00,0.0,WeatherDisplay:10.37,2013-07-26 10:47:00,
2013-07-26 05:52:00,60.1,60.1,29.88,WSW,238,5.8,5.8,100,0.00,OVC,,0.00,0.0,WeatherDisplay:10.37,2013-07-26 10:52:00,
2013-07-26 05:57:00,60.3,60.3,29.88,SSW,210,9.2,9.2,100,0.00,OVC,,0.00,0.0,WeatherDisplay:10.37,2013-07-26 10:57:00,
2013-07-26 06:02:00,60.3,60.3,29.88,SSW,195,3.5,0.0,100,0.00,OVC,,0.00,0.0,WeatherDisplay:10.37,2013-07-26 11:02:00,
2013-07-26 06:07:00,60.3,60.3,29.88,SSW,210,5.8,5.8,100,0.00,OVC,,0.00,0.0,WeatherDisplay:10.37,2013-07-26 11:07:00,
2013-07-26 06:12:00,60.4,60.4,29.88,SSW,212,2.3,0.0,100,0.00,OVC,,0.00,0.0,WeatherDisplay:10.37,2013-07-26 11:12:00,
2013-07-26 06:17:00,60.6,60.6,29.88,West,260,4.6,4.6,100,0.00,OVC,,0.00,0.0,WeatherDisplay:10.37,2013-07-26 11:17:00,
2013-07-26 06:22:00,60.8,60.8,29.88,SW,226,5.8,5.8,100,0.00,OVC,,0.00,0.0,WeatherDisplay:10.37,2013-07-26 11:22:00,
2013-07-26 06:27:00,61.0,61.0,29.88,SSW,210,5.8,5.8,100,0.00,OVC,,0.00,0.0,WeatherDisplay:10.37,2013-07-26 11:27:00,
2013-07-26 06:32:00,61.0,61.0,29.88,SSW,197,5.8,5.8,100,0.00,OVC,,0.00,0.0,WeatherDisplay:10.37,2013-07-26 11:32:00,
2013-07-26 06:37:00,61.2,61.2,29.88,SSW,201,5.8,5.8,100,0.00,OVC,,0.00,0.0,WeatherDisplay:10.37,2013-07-26 11:37:00,
2013-07-26 06:42:00,61.3,61.3,29.88,SSW,202,5.8,5.8,100,0.00,OVC,,0.00,0.0,WeatherDisplay:10.37,2013-07-26 11:42:00,
2013-07-26 06:47:00,61.5,61.5,29.88,SSW,195,5.8,5.8,100,0.00,OVC,,0.00,0.0,WeatherDisplay:10.37,2013-07-26 11:47:00,
2013-07-26 06:52:00,61.5,61.5,29.88,SW,217,6.9,6.9,100,0.00,OVC,,0.00,0.0,WeatherDisplay:10.37,2013-07-26 11:52:00,
2013-07-26 06:57:00,61.9,61.9,29.88,SSW,199,5.8,5.8,100,0.00,OVC,,0.00,0.0,WeatherDisplay:10.37,2013-07-26 11:57:00,
2013-07-26 07:02:00,61.9,61.9,29.88,South,171,8.1,8.1,100,0.00,OVC,,0.00,0.0,WeatherDisplay:10.37,2013-07-26 12:02:00,
2013-07-26 07:07:00,62.1,62.1,29.88,SSE,152,6.9,0.0,100,0.00,OVC,,0.00,0.0,WeatherDisplay:10.37,2013-07-26 12:07:00,
2013-07-26 07:12:00,62.1,62.1,29.88,SW,221,6.9,6.9,100,0.00,OVC,,0.00,0.0,WeatherDisplay:10.37,2013-07-26 12:12:00,
2013-07-26 07:17:00,62.2,62.2,29.88,SW,231,5.8,5.8,100,0.00,OVC,,0.00,0.0,WeatherDisplay:10.37,2013-07-26 12:17:00,
2013-07-26 07:22:00,62.4,62.4,29.88,SSW,199,5.8,5.8,100,0.00,OVC,,0.00,0.0,WeatherDisplay:10.37,2013-07-26 12:22:00,
2013-07-26 07:27:00,62.4,62.4,29.88,SW,233,9.2,9.2,100,0.00,OVC,,0.00,0.0,WeatherDisplay:10.37,2013-07-26 12:27:00,
2013-07-26 07:32:00,62.6,62.6,29.88,SW,233,5.8,5.8,100,0.00,OVC,,0.00,0.0,WeatherDisplay:10.37,2013-07-26 12:32:00,
2013-07-26 07:37:00,62.8,62.8,29.88,South,184,8.1,8.1,100,0.00,OVC,,0.00,0.0,WeatherDisplay:10.37,2013-07-26 12:37:00,
2013-07-26 07:42:00,63.0,63.0,29.88,South,174,4.6,4.6,100,0.00,OVC,,0.00,0.0,WeatherDisplay:10.37,2013-07-26 12:42:00,
2013-07-26 07:47:00,63.0,63.0,29.88,SSW,199,6.9,6.9,100,0.00,OVC,,0.00,0.0,WeatherDisplay:10.37,2013-07-26 12:47:00,
2013-07-26 07:52:00,63.0,63.0,29.88,SW,232,6.9,6.9,100,0.00,OVC,,0.00,0.0,WeatherDisplay:10.37,2013-07-26 12:52:00,
2013-07-26 07:57:00,63.0,63.0,29.88,SW,214,5.8,5.8,100,0.00,OVC,,0.00,0.0,WeatherDisplay:10.37,2013-07-26 12:57:00,
2013-07-26 08:02:00,63.1,63.1,29.88,SW,221,6.9,6.9,100,0.00,OVC,,0.00,0.0,WeatherDisplay:10.37,2013-07-26 13:02:00,
2013-07-26 08:07:00,63.3,63.3,29.88,South,181,5.8,5.8,100,0.00,OVC,,0.00,0.0,WeatherDisplay:10.37,2013-07-26 13:07:00,
2013-07-26 08:12:00,63.5,63.5,29.88,WSW,237,6.9,6.9,100,0.00,OVC,,0.00,0.0,WeatherDisplay:10.37,2013-07-26 13:12:00,
2013-07-26 08:17:00,63.7,63.7,29.88,SW,216,5.8,5.8,100,0.00,OVC,,0.00,0.0,WeatherDisplay:10.37,2013-07-26 13:17:00,
2013-07-26 08:22:00,63.9,63.9,29.88,South,187,8.1,8.1,100,0.00,OVC,,0.00,0.0,WeatherDisplay:10.37,2013-07-26 13:22:00,
2013-07-26 08:28:00,63.9,63.9,29.88,SW,221,8.1,8.1,100,0.00,OVC,,0.00,0.0,WeatherDisplay:10.37,2013-07-26 13:28:00,
2013-07-26 08:33:00,63.9,63.9,29.88,West,265,5.8,5.8,100,0.00,OVC,,0.00,0.0,WeatherDisplay:10.37,2013-07-26 13:33:00,
2013-07-26 08:38:00,63.9,63.9,29.88,SSW,203,5.8,5.8,100,0.00,OVC,,0.00,0.0,WeatherDisplay:10.37,2013-07-26 13:38:00,
2013-07-26 08:43:00,63.9,63.9,29.88,SSW,206,5.8,5.8,100,0.00,OVC,,0.00,0.0,WeatherDisplay:10.37,2013-07-26 13:43:00,
2013-07-26 08:48:00,63.9,63.9,29.88,SW,218,3.3,3.3,100,0.00,OVC,,0.00,0.0,WeatherDisplay:10.37,2013-07-26 13:48:00,
2013-07-26 08:53:00,63.9,63.9,29.88,WSW,247,5.8,5.8,100,0.00,OVC,,0.00,0.0,WeatherDisplay:10.37,2013-07-26 13:53:00,
2013-07-26 08:58:00,64.0,64.0,29.88,SW,217,6.9,6.9,100,0.00,OVC,,0.00,0.0,WeatherDisplay:10.37,2013-07-26 13:58:00,
2013-07-26 09:03:00,63.9,63.9,29.88,SW,215,6.9,6.9,100,0.00,-RA,,0.00,0.0,WeatherDisplay:10.37,2013-07-26 14:03:00,
2013-07-26 09:08:00,63.9,63.9,29.88,WSW,242,6.7,6.7,100,0.00,-RA,,0.00,0.0,WeatherDisplay:10.37,2013-07-26 14:08:00,
2013-07-26 09:13:00,63.9,63.9,29.88,SSW,205,3.5,0.0,100,0.00,-RA,,0.00,0.0,WeatherDisplay:10.37,2013-07-26 14:13:00,
2013-07-26 09:18:00,63.7,63.7,29.88,West,262,6.9,6.9,100,0.00,-RA,,0.00,0.0,WeatherDisplay:10.37,2013-07-26 14:18:00,
2013-07-26 09:23:00,63.7,63.7,29.88,South,186,4.6,4.6,100,0.00,-RA,,0.00,0.0,WeatherDisplay:10.37,2013-07-26 14:23:00,
2013-07-26 09:28:00,63.7,63.7,29.88,South,178,4.6,4.6,100,0.00,-RA,,0.00,0.0,WeatherDisplay:10.37,2013-07-26 14:28:00,
2013-07-26 09:33:00,63.7,63.7,29.88,SSW,192,6.9,6.9,100,0.00,OVC,,0.00,0.0,WeatherDisplay:10.37,2013-07-26 14:33:00,
2013-07-26 09:38:00,63.7,63.7,29.88,SW,216,2.3,2.7,100,0.00,OVC,,0.00,0.0,WeatherDisplay:10.37,2013-07-26 14:38:00,
2013-07-26 09:43:00,64.0,64.0,29.88,SSW,211,6.9,0.0,100,0.00,OVC,,0.00,0.0,WeatherDisplay:10.37,2013-07-26 14:43:00,
2013-07-26 09:48:00,64.4,64.4,29.85,SSE,165,5.8,5.8,100,0.00,OVC,,0.00,0.0,WeatherDisplay:10.37,2013-07-26 14:48:00,
2013-07-26 09:53:00,64.8,64.8,29.85,WSW,257,5.8,5.8,100,0.00,OVC,,0.00,0.0,WeatherDisplay:10.37,2013-07-26 14:53:00,
2013-07-26 09:58:00,65.1,65.1,29.85,South,176,4.3,4.3,100,0.00,OVC,,0.00,0.0,WeatherDisplay:10.37,2013-07-26 14:58:00,
2013-07-26 10:03:00,65.5,65.5,29.85,SW,217,5.8,5.8,100,0.00,OVC,,0.00,0.0,WeatherDisplay:10.37,2013-07-26 15:03:00,
2013-07-26 10:08:00,65.8,65.8,29.85,SSW,200,6.9,6.9,100,0.00,OVC,,0.00,0.0,WeatherDisplay:10.37,2013-07-26 15:08:00,
2013-07-26 10:13:00,66.0,66.0,29.85,South,191,5.8,5.8,100,0.00,OVC,,0.00,0.0,WeatherDisplay:10.37,2013-07-26 15:13:00,
2013-07-26 10:18:00,66.4,66.4,29.85,South,183,9.2,9.2,100,0.00,OVC,,0.00,0.0,WeatherDisplay:10.37,2013-07-26 15:18:00,
2013-07-26 10:23:00,66.6,66.6,29.85,WSW,247,4.6,0.0,100,0.00,OVC,,0.00,0.0,WeatherDisplay:10.37,2013-07-26 15:23:00,
2013-07-26 10:28:00,66.7,66.7,29.85,South,188,5.8,5.8,100,0.00,OVC,,0.00,0.0,WeatherDisplay:10.37,2013-07-26 15:28:00,
2013-07-26 10:33:00,67.1,67.1,29.85,SSW,203,5.8,5.8,100,0.00,OVC,,0.00,0.0,WeatherDisplay:10.37,2013-07-26 15:33:00,
2013-07-26 10:38:00,67.6,67.6,29.85,SW,236,8.1,8.1,100,0.00,OVC,,0.00,0.0,WeatherDisplay:10.37,2013-07-26 15:38:00,
2013-07-26 10:43:00,68.2,68.2,29.85,WSW,240,8.1,8.1,100,0.00,OVC,,0.00,0.0,WeatherDisplay:10.37,2013-07-26 15:43:00,
2013-07-26 10:48:00,68.7,67.5,29.85,SW,230,9.2,9.2,96,0.00,OVC,,0.00,0.0,WeatherDisplay:10.37,2013-07-26 15:48:00,
2013-07-26 10:53:00,69.3,67.1,29.85,WSW,255,5.8,5.8,93,0.00,OVC,,0.00,0.0,WeatherDisplay:10.37,2013-07-26 15:53:00,
2013-07-26 10:58:00,69.8,67.4,29.85,South,185,8.1,8.1,92,0.00,OVC,,0.00,0.0,WeatherDisplay:10.37,2013-07-26 15:58:00,
2013-07-26 11:03:00,70.9,67.5,29.82,East,89,5.8,5.8,89,0.00,OVC,,0.00,0.0,WeatherDisplay:10.37,2013-07-26 16:03:00,
2013-07-26 11:08:00,71.2,66.5,29.82,SSW,204,6.9,6.9,85,0.00,OVC,,0.00,0.0,WeatherDisplay:10.37,2013-07-26 16:08:00,
2013-07-26 11:13:00,71.6,65.5,29.82,SW,224,8.1,8.1,81,0.00,OVC,,0.00,0.0,WeatherDisplay:10.37,2013-07-26 16:13:00,
2013-07-26 11:18:00,71.6,64.4,29.82,WSW,247,8.1,8.1,78,0.00,OVC,,0.00,0.0,WeatherDisplay:10.37,2013-07-26 16:18:00,
2013-07-26 11:23:00,70.9,62.6,29.82,SSW,213,4.6,0.0,75,0.00,OVC,,0.00,0.0,WeatherDisplay:10.37,2013-07-26 16:23:00,
2013-07-26 11:28:00,69.8,61.9,29.82,South,176,3.5,0.0,76,0.00,OVC,,0.00,0.0,WeatherDisplay:10.37,2013-07-26 16:28:00,
2013-07-26 11:33:00,69.1,62.6,29.82,SE,134,5.8,0.0,80,0.00,OVC,,0.00,0.0,WeatherDisplay:10.37,2013-07-26 16:33:00,
2013-07-26 11:38:00,68.4,64.3,29.82,WSW,247,3.5,0.0,87,0.00,OVC,,0.00,0.0,WeatherDisplay:10.37,2013-07-26 16:38:00,
2013-07-26 11:43:00,67.3,64.2,29.82,NNW,339,2.3,0.0,90,0.04,RA,,0.04,0.0,WeatherDisplay:10.37,2013-07-26 16:43:00,
2013-07-26 11:48:00,66.4,64.6,29.82,SW,221,0.0,0.0,94,0.04,RA,,0.04,0.0,WeatherDisplay:10.37,2013-07-26 16:48:00,
2013-07-26 11:53:00,66.0,65.1,29.82,SSW,194,2.3,0.0,97,0.04,OVC,,0.04,0.0,WeatherDisplay:10.37,2013-07-26 16:53:00,
2013-07-26 11:58:00,66.0,65.4,29.82,SSW,194,0.0,0.0,98,0.04,OVC,,0.04,0.0,WeatherDisplay:10.37,2013-07-26 16:58:00,
2013-07-26 12:03:00,66.0,66.0,29.82,SSW,194,0.0,0.0,100,0.04,-RA,,0.04,0.0,WeatherDisplay:10.37,2013-07-26 17:03:00,
2013-07-26 12:08:00,66.0,66.0,29.82,SSW,197,3.5,0.0,100,0.04,-RA,,0.04,0.0,WeatherDisplay:10.37,2013-07-26 17:08:00,
2013-07-26 12:13:00,66.2,66.2,29.82,SW,214,0.0,2.2,100,0.04,-RA,,0.04,0.0,WeatherDisplay:10.37,2013-07-26 17:13:00,
2013-07-26 12:18:00,66.6,66.6,29.82,SSW,203,0.0,0.0,100,0.04,-RA,,0.04,0.0,WeatherDisplay:10.37,2013-07-26 17:18:00,
2013-07-26 12:23:00,66.9,66.9,29.82,SW,229,6.9,6.9,100,0.04,-RA,,0.04,0.0,WeatherDisplay:10.37,2013-07-26 17:23:00,
2013-07-26 12:28:00,66.9,66.9,29.82,SSE,164,5.8,5.8,100,0.04,-RA,,0.04,0.0,WeatherDisplay:10.37,2013-07-26 17:28:00,
2013-07-26 12:33:00,67.3,67.3,29.82,SW,234,4.6,4.6,100,0.04,BKN,,0.04,0.0,WeatherDisplay:10.37,2013-07-26 17:33:00,
2013-07-26 12:38:00,67.3,67.3,29.82,SW,234,5.8,5.8,100,0.04,BKN,,0.04,0.0,WeatherDisplay:10.37,2013-07-26 17:38:00,
2013-07-26 12:43:00,68.2,68.2,29.82,South,189,9.2,9.2,100,0.04,BKN,,0.04,0.0,WeatherDisplay:10.37,2013-07-26 17:43:00,
2013-07-26 12:48:00,68.7,68.7,29.82,WNW,286,3.5,0.0,100,0.00,BKN,,0.04,0.0,WeatherDisplay:10.37,2013-07-26 17:48:00,
2013-07-26 12:53:00,69.3,66.8,29.82,SSE,151,6.9,6.9,92,0.00,OVC,,0.04,0.0,WeatherDisplay:10.37,2013-07-26 17:53:00,
2013-07-26 12:58:00,70.2,67.1,29.82,SSW,210,5.8,5.8,90,0.00,OVC,,0.04,0.0,WeatherDisplay:10.37,2013-07-26 17:58:00,
2013-07-26 13:03:00,70.5,66.1,29.82,SW,225,0.0,0.0,86,0.00,BKN,,0.04,0.0,WeatherDisplay:10.37,2013-07-26 18:03:00,
2013-07-26 13:08:00,70.7,65.6,29.82,WSW,245,2.3,4.0,84,0.00,BKN,,0.04,0.0,WeatherDisplay:10.37,2013-07-26 18:08:00,
2013-07-26 13:13:00,71.4,65.6,29.82,NW,305,5.8,5.8,82,0.00,BKN,,0.04,0.0,WeatherDisplay:10.37,2013-07-26 18:13:00,
2013-07-26 13:18:00,72.9,65.6,29.82,SW,215,5.8,5.8,78,0.00,BKN,,0.04,0.0,WeatherDisplay:10.37,2013-07-26 18:18:00,
2013-07-26 13:23:00,74.3,64.3,29.82,SSE,159,8.1,8.1,71,0.00,BKN,,0.04,0.0,WeatherDisplay:10.37,2013-07-26 18:23:00,
2013-07-26 13:28:00,75.6,63.8,29.82,SW,220,5.8,6.3,67,0.00,BKN,,0.04,0.0,WeatherDisplay:10.37,2013-07-26 18:28:00,
2013-07-26 13:33:00,76.5,62.5,29.79,SSW,195,8.6,8.6,62,0.00,OVC,,0.04,0.0,WeatherDisplay:10.37,2013-07-26 18:33:00,
2013-07-26 13:38:00,76.6,61.7,29.79,SSE,148,8.1,8.1,60,0.00,OVC,,0.04,0.0,WeatherDisplay:10.37,2013-07-26 18:38:00,
2013-07-26 13:43:00,75.2,60.8,29.79,SW,224,3.5,3.5,61,0.00,OVC,,0.04,0.0,WeatherDisplay:10.37,2013-07-26 18:43:00,
2013-07-26 13:48:00,71.8,59.8,29.82,SSE,157,3.5,0.0,66,0.00,OVC,,0.08,0.0,WeatherDisplay:10.37,2013-07-26 18:48:00,
2013-07-26 13:53:00,69.6,59.8,29.82,South,187,0.0,0.0,71,0.04,RA,,0.08,0.0,WeatherDisplay:10.37,2013-07-26 18:53:00,
2013-07-26 13:58:00,69.3,62.8,29.82,South,179,0.0,0.0,80,0.04,RA,,0.08,0.0,WeatherDisplay:10.37,2013-07-26 18:58:00,
2013-07-26 14:03:00,70.0,64.9,29.82,WSW,245,4.6,0.0,84,0.04,BKN,,0.08,0.0,WeatherDisplay:10.37,2013-07-26 19:03:00,
2013-07-26 14:08:00,70.7,63.9,29.82,NW,314,4.6,0.0,79,0.04,BKN,,0.08,0.0,WeatherDisplay:10.37,2013-07-26 19:08:00,
2013-07-26 14:13:00,71.2,61.7,29.82,NW,305,3.5,3.6,72,0.04,BKN,,0.08,0.0,WeatherDisplay:10.37,2013-07-26 19:13:00,
2013-07-26 14:18:00,71.4,59.9,29.82,West,276,5.8,5.8,67,0.04,BKN,,0.08,0.0,WeatherDisplay:10.37,2013-07-26 19:18:00,
2013-07-26 14:23:00,71.4,55.9,29.82,NW,312,5.8,5.8,58,0.04,BKN,,0.08,0.0,WeatherDisplay:10.37,2013-07-26 19:23:00,
2013-07-26 14:28:00,71.8,57.1,29.82,SE,141,2.3,2.3,60,0.04,BKN,,0.08,0.0,WeatherDisplay:10.37,2013-07-26 19:28:00,
2013-07-26 14:33:00,72.3,57.2,29.82,NNW,346,4.6,4.6,59,0.04,SCT,,0.08,0.0,WeatherDisplay:10.37,2013-07-26 19:33:00,
2013-07-26 14:38:00,72.7,57.0,29.82,SE,144,8.1,8.1,58,0.04,SCT,,0.08,0.0,WeatherDisplay:10.37,2013-07-26 19:38:00,
2013-07-26 14:43:00,73.4,57.7,29.82,SW,220,3.5,0.0,58,0.04,SCT,,0.08,0.0,WeatherDisplay:10.37,2013-07-26 19:43:00,
2013-07-26 14:48:00,74.3,57.6,29.82,NW,320,3.5,3.5,56,0.04,SCT,,0.08,0.0,WeatherDisplay:10.37,2013-07-26 19:48:00,
2013-07-26 14:53:00,74.8,56.0,29.82,East,88,3.5,3.5,52,0.00,SCT,,0.08,0.0,WeatherDisplay:10.37,2013-07-26 19:53:00,
2013-07-26 14:58:00,74.7,55.3,29.82,NNW,328,3.5,3.5,51,0.04,RA,,0.12,0.0,WeatherDisplay:10.37,2013-07-26 19:58:00,
2013-07-26 15:03:00,73.9,53.6,29.82,NE,38,11.5,11.5,49,0.04,RA,,0.12,0.0,WeatherDisplay:10.37,2013-07-26 20:03:00,
2013-07-26 15:08:00,73.6,53.8,29.82,NNE,25,6.9,6.9,50,0.04,SCT,,0.12,0.0,WeatherDisplay:10.37,2013-07-26 20:08:00,
2013-07-26 15:13:00,73.6,53.8,29.82,WSW,241,6.9,6.9,50,0.04,SCT,,0.12,0.0,WeatherDisplay:10.37,2013-07-26 20:13:00,
2013-07-26 15:18:00,73.2,52.9,29.82,West,273,8.1,8.1,49,0.04,SCT,,0.12,0.0,WeatherDisplay:10.37,2013-07-26 20:18:00,
2013-07-26 15:23:00,72.7,53.5,29.82,North,349,6.9,6.9,51,0.04,SCT,,0.12,0.0,WeatherDisplay:10.37,2013-07-26 20:23:00,
2013-07-26 15:28:00,72.7,53.5,29.82,North,7,7.2,7.2,51,0.04,SCT,,0.12,0.0,WeatherDisplay:10.37,2013-07-26 20:28:00,
2013-07-26 15:33:00,72.9,52.6,29.82,North,357,5.8,5.8,49,0.04,SCT,,0.12,0.0,WeatherDisplay:10.37,2013-07-26 20:33:00,
2013-07-26 15:38:00,73.4,52.5,29.82,NE,34,5.8,5.8,48,0.04,SCT,,0.12,0.0,WeatherDisplay:10.37,2013-07-26 20:38:00,
2013-07-26 15:43:00,73.6,53.8,29.82,North,357,4.6,4.6,50,0.04,SCT,,0.12,0.0,WeatherDisplay:10.37,2013-07-26 20:43:00,
2013-07-26 15:48:00,73.0,53.3,29.82,NW,317,8.1,8.1,50,0.04,SCT,,0.12,0.0,WeatherDisplay:10.37,2013-07-26 20:48:00,
2013-07-26 15:53:00,72.9,54.7,29.82,NNW,343,3.5,3.5,53,0.04,SCT,,0.12,0.0,WeatherDisplay:10.37,2013-07-26 20:53:00,
2013-07-26 15:58:00,72.9,54.2,29.82,North,357,6.9,6.9,52,0.00,SCT,,0.12,0.0,WeatherDisplay:10.37,2013-07-26 20:58:00,
2013-07-26 16:03:00,72.7,54.0,29.82,WNW,299,5.8,5.8,52,0.00,SCT,,0.12,0.0,WeatherDisplay:10.37,2013-07-26 21:03:00,
2013-07-26 16:08:00,72.5,52.8,29.82,NNE,20,5.8,5.8,50,0.00,SCT,,0.12,0.0,WeatherDisplay:10.37,2013-07-26 21:08:00,
2013-07-26 16:13:00,72.5,51.7,29.82,SSW,211,5.8,5.8,48,0.00,SCT,,0.12,0.0,WeatherDisplay:10.37,2013-07-26 21:13:00,
2013-07-26 16:18:00,72.5,52.2,29.82,NNE,23,4.6,4.6,49,0.00,SCT,,0.12,0.0,WeatherDisplay:10.37,2013-07-26 21:18:00,
2013-07-26 16:23:00,72.9,53.7,29.82,WNW,298,5.8,5.8,51,0.00,SCT,,0.12,0.0,WeatherDisplay:10.37,2013-07-26 21:23:00,
2013-07-26 16:28:00,72.3,52.6,29.82,North,357,8.1,8.1,50,0.00,SCT,,0.12,0.0,WeatherDisplay:10.37,2013-07-26 21:28:00,
2013-07-26 16:33:00,71.8,52.7,29.82,North,4,8.1,8.1,51,0.00,SCT,,0.12,0.0,WeatherDisplay:10.37,2013-07-26 21:33:00,
2013-07-26 16:38:00,71.6,53.6,29.82,NNE,23,6.9,6.9,53,0.00,SCT,,0.12,0.0,WeatherDisplay:10.37,2013-07-26 21:38:00,
2013-07-26 16:43:00,72.0,54.4,29.82,East,87,3.5,3.5,54,0.00,SCT,,0.12,0.0,WeatherDisplay:10.37,2013-07-26 21:43:00,
2013-07-26 16:48:00,72.1,53.0,29.82,NNW,343,3.8,4.5,51,0.00,SCT,,0.12,0.0,WeatherDisplay:10.37,2013-07-26 21:48:00,
2013-07-26 16:53:00,71.8,52.7,29.82,SSW,208,4.6,4.6,51,0.00,SCT,,0.12,0.0,WeatherDisplay:10.37,2013-07-26 21:53:00,
2013-07-26 16:58:00,71.8,52.7,29.82,North,0,4.6,4.6,51,0.00,SCT,,0.12,0.0,WeatherDisplay:10.37,2013-07-26 21:58:00,
2013-07-26 17:03:00,71.4,52.9,29.82,North,5,5.8,5.8,52,0.00,CLR,,0.12,0.0,WeatherDisplay:10.37,2013-07-26 22:03:00,
2013-07-26 17:08:00,71.2,53.7,29.82,NNE,15,4.6,4.6,54,0.00,CLR,,0.12,0.0,WeatherDisplay:10.37,2013-07-26 22:08:00,
2013-07-26 17:13:00,71.4,53.4,29.82,West,269,4.6,4.6,53,0.00,CLR,,0.12,0.0,WeatherDisplay:10.37,2013-07-26 22:13:00,
2013-07-26 17:18:00,71.2,53.7,29.82,NE,44,3.5,3.6,54,0.00,CLR,,0.12,0.0,WeatherDisplay:10.37,2013-07-26 22:18:00,
2013-07-26 17:23:00,71.1,53.6,29.82,North,9,6.2,6.2,54,0.00,CLR,,0.12,0.0,WeatherDisplay:10.37,2013-07-26 22:23:00,
2013-07-26 17:28:00,70.9,51.3,29.82,WNW,301,5.8,5.8,50,0.00,CLR,,0.12,0.0,WeatherDisplay:10.37,2013-07-26 22:28:00,
2013-07-26 17:33:00,71.2,51.1,29.82,NNW,339,5.8,5.8,49,0.00,CLR,,0.12,0.0,WeatherDisplay:10.37,2013-07-26 22:33:00,
2013-07-26 17:38:00,71.2,52.2,29.82,SSW,197,4.6,4.6,51,0.00,CLR,,0.12,0.0,WeatherDisplay:10.37,2013-07-26 22:38:00,
2013-07-26 17:43:00,71.2,53.7,29.82,NNW,336,4.6,4.6,54,0.00,CLR,,0.12,0.0,WeatherDisplay:10.37,2013-07-26 22:43:00,
2013-07-26 17:48:00,71.4,53.9,29.85,NNE,12,8.1,0.0,54,0.00,CLR,,0.12,0.0,WeatherDisplay:10.37,2013-07-26 22:48:00,
2013-07-26 17:53:00,71.6,53.6,29.85,NW,311,3.5,3.6,53,0.00,CLR,,0.12,0.0,WeatherDisplay:10.37,2013-07-26 22:53:00,
2013-07-26 17:58:00,71.4,53.4,29.85,NNW,341,5.8,5.8,53,0.00,CLR,,0.12,0.0,WeatherDisplay:10.37,2013-07-26 22:58:00,
2013-07-26 18:03:00,71.1,54.6,29.85,North,1,5.8,5.8,56,0.00,SCT,,0.12,0.0,WeatherDisplay:10.37,2013-07-26 23:03:00,
2013-07-26 18:08:00,71.1,53.6,29.85,North,353,5.8,5.8,54,0.00,SCT,,0.12,0.0,WeatherDisplay:10.37,2013-07-26 23:08:00,
2013-07-26 18:13:00,71.1,52.0,29.85,ENE,74,5.8,5.8,51,0.00,SCT,,0.12,0.0,WeatherDisplay:10.37,2013-07-26 23:13:00,
2013-07-26 18:18:00,70.9,51.8,29.85,North,2,5.8,5.8,51,0.00,SCT,,0.12,0.0,WeatherDisplay:10.37,2013-07-26 23:18:00,
2013-07-26 18:23:00,69.8,51.4,29.85,NNW,338,5.8,5.8,52,0.00,SCT,,0.12,0.0,WeatherDisplay:10.37,2013-07-26 23:23:00,
2013-07-26 18:28:00,68.7,52.9,29.85,North,11,3.5,3.5,57,0.00,SCT,,0.12,0.0,WeatherDisplay:10.37,2013-07-26 23:28:00,
2013-07-26 18:33:00,68.0,52.7,29.85,North,6,8.1,8.1,58,0.00,CLR,,0.12,0.0,WeatherDisplay:10.37,2013-07-26 23:33:00,
2013-07-26 18:38:00,67.6,52.8,29.85,NW,311,5.8,5.8,59,0.00,CLR,,0.12,0.0,WeatherDisplay:10.37,2013-07-26 23:38:00,
2013-07-26 18:43:00,67.3,52.9,29.85,NNW,343,3.5,3.5,60,0.00,CLR,,0.12,0.0,WeatherDisplay:10.37,2013-07-26 23:43:00,
2013-07-26 18:48:00,67.3,52.9,29.85,East,84,5.8,5.8,60,0.00,CLR,,0.12,0.0,WeatherDisplay:10.37,2013-07-26 23:48:00,
2013-07-26 18:53:00,67.3,53.4,29.85,NNE,23,3.5,4.0,61,0.00,SCT,,0.12,0.0,WeatherDisplay:10.37,2013-07-26 23:53:00,
2013-07-26 18:58:00,67.6,52.8,29.85,North,8,8.1,8.1,59,0.00,SCT,,0.12,0.0,WeatherDisplay:10.37,2013-07-26 23:58:00,
2013-07-26 19:06:00,67.8,53.0,29.85,NNE,15,8.1,8.1,59,0.00,BKN,,0.12,0.0,WeatherDisplay:10.37,2013-07-27 00:06:00,
2013-07-26 19:11:00,67.8,53.0,29.85,NW,308,5.8,5.8,59,0.00,RA,,0.12,0.0,WeatherDisplay:10.37,2013-07-27 00:11:00,
2013-07-26 19:16:00,67.8,53.4,29.85,NNE,27,3.5,0.0,60,0.00,RA,,0.12,0.0,WeatherDisplay:10.37,2013-07-27 00:16:00,
2013-07-26 19:21:00,67.6,52.8,29.85,North,353,12.7,12.7,59,0.00,BKN,,0.12,0.0,WeatherDisplay:10.37,2013-07-27 00:21:00,
2013-07-26 19:26:00,66.9,52.6,29.85,NNE,25,4.6,4.6,60,0.00,BKN,,0.12,0.0,WeatherDisplay:10.37,2013-07-27 00:26:00,
2013-07-26 19:31:00,66.4,53.0,29.85,NNW,348,4.6,4.6,62,0.00,BKN,,0.12,0.0,WeatherDisplay:10.37,2013-07-27 00:31:00,
2013-07-26 19:36:00,65.8,53.7,29.85,North,350,3.5,3.5,65,0.00,BKN,,0.12,0.0,WeatherDisplay:10.37,2013-07-27 00:36:00,
2013-07-26 19:41:00,65.7,53.6,29.85,NE,54,6.9,6.9,65,0.00,BKN,,0.12,0.0,WeatherDisplay:10.37,2013-07-27 00:41:00,
2013-07-26 19:46:00,65.3,52.4,29.88,North,357,4.6,4.6,63,0.00,BKN,,0.12,0.0,WeatherDisplay:10.37,2013-07-27 00:46:00,
2013-07-26 19:51:00,65.1,53.5,29.88,NE,44,2.3,3.1,66,0.00,BKN,,0.12,0.0,WeatherDisplay:10.37,2013-07-27 00:51:00,
2013-07-26 19:56:00,64.8,53.5,29.88,NNE,33,3.5,3.5,67,0.00,BKN,,0.12,0.0,WeatherDisplay:10.37,2013-07-27 00:56:00,
2013-07-26 20:17:00,63.9,53.5,29.88,NNE,20,3.5,0.0,69,0.00,BKN,,0.12,0.0,WeatherDisplay:10.37,2013-07-27 01:17:00,
2013-07-26 20:22:00,63.7,53.3,29.88,NNE,28,6.9,6.9,69,0.00,OVC,,0.12,0.0,WeatherDisplay:10.37,2013-07-27 01:22:00,
2013-07-26 20:27:00,63.7,53.3,29.88,NNE,21,3.5,3.5,69,0.00,OVC,,0.12,0.0,WeatherDisplay:10.37,2013-07-27 01:27:00,
2013-07-26 20:32:00,63.5,53.5,29.88,North,5,3.5,0.0,70,0.00,OVC,,0.12,0.0,WeatherDisplay:10.37,2013-07-27 01:32:00,
2013-07-26 20:37:00,63.5,53.5,29.88,North,353,2.3,0.0,70,0.00,OVC,,0.12,0.0,WeatherDisplay:10.37,2013-07-27 01:37:00,
2013-07-26 20:42:00,63.3,53.8,29.88,NNE,21,4.6,4.6,71,0.00,OVC,,0.12,0.0,WeatherDisplay:10.37,2013-07-27 01:42:00,
2013-07-26 20:47:00,63.3,53.4,29.88,NNE,12,9.8,0.0,70,0.00,OVC,,0.12,0.0,WeatherDisplay:10.37,2013-07-27 01:47:00,
2013-07-26 20:52:00,63.1,52.8,29.88,NE,40,13.8,13.8,69,0.00,OVC,,0.12,0.0,WeatherDisplay:10.37,2013-07-27 01:52:00,
2013-07-26 20:57:00,62.1,51.4,29.88,NE,35,10.4,10.4,68,0.00,OVC,,0.12,0.0,WeatherDisplay:10.37,2013-07-27 01:57:00,
2013-07-26 21:03:00,61.0,50.3,29.91,NNW,345,12.7,12.7,68,0.00,OVC,,0.12,0.0,WeatherDisplay:10.37,2013-07-27 02:03:00,
2013-07-26 21:08:00,60.1,50.3,29.91,NE,51,12.7,12.7,70,0.00,OVC,,0.12,0.0,WeatherDisplay:10.37,2013-07-27 02:08:00,
2013-07-26 21:13:00,59.4,50.0,29.91,NE,49,10.4,10.4,71,0.00,OVC,,0.12,0.0,WeatherDisplay:10.37,2013-07-27 02:13:00,
2013-07-26 21:18:00,58.8,49.4,29.91,NNE,29,12.7,12.7,71,0.00,OVC,,0.12,0.0,WeatherDisplay:10.37,2013-07-27 02:18:00,
2013-07-26 21:23:00,58.3,48.9,29.91,NNE,33,12.7,12.7,71,0.00,OVC,,0.12,0.0,WeatherDisplay:10.37,2013-07-27 02:23:00,
2013-07-26 21:28:00,57.7,48.4,29.91,NNE,14,12.7,12.7,71,0.00,OVC,,0.12,0.0,WeatherDisplay:10.37,2013-07-27 02:28:00,
2013-07-26 21:33:00,57.2,48.3,29.91,NNW,340,11.5,11.5,72,0.00,OVC,,0.12,0.0,WeatherDisplay:10.37,2013-07-27 02:33:00,
2013-07-26 21:38:00,56.7,48.1,29.91,ENE,63,8.1,8.1,73,0.00,OVC,,0.12,0.0,WeatherDisplay:10.37,2013-07-27 02:38:00,
2013-07-26 21:43:00,56.5,47.9,29.91,NNW,328,10.4,10.4,73,0.00,OVC,,0.12,0.0,WeatherDisplay:10.37,2013-07-27 02:43:00,
2013-07-26 21:48:00,56.1,47.6,29.91,North,4,5.8,5.8,73,0.00,OVC,,0.12,0.0,WeatherDisplay:10.37,2013-07-27 02:48:00,
2013-07-26 21:53:00,55.9,47.4,29.91,North,9,8.1,8.1,73,0.00,OVC,,0.12,0.0,WeatherDisplay:10.37,2013-07-27 02:53:00,
2013-07-26 21:58:00,55.8,47.6,29.91,NNE,16,8.1,8.1,74,0.00,OVC,,0.12,0.0,WeatherDisplay:10.37,2013-07-27 02:58:00,
2013-07-26 22:03:00,55.6,47.4,29.91,East,79,5.8,5.8,74,0.00,OVC,,0.12,0.0,WeatherDisplay:10.37,2013-07-27 03:03:00,
2013-07-26 22:08:00,55.6,47.1,29.91,NE,46,10.4,10.4,73,0.00,OVC,,0.12,0.0,WeatherDisplay:10.37,2013-07-27 03:08:00,
2013-07-26 22:13:00,55.6,46.7,29.91,North,9,11.5,11.5,72,0.00,OVC,,0.12,0.0,WeatherDisplay:10.37,2013-07-27 03:13:00,
2013-07-26 22:18:00,55.6,46.7,29.91,NNE,22,11.5,11.5,72,0.00,OVC,,0.12,0.0,WeatherDisplay:10.37,2013-07-27 03:18:00,
2013-07-26 22:23:00,55.4,46.5,29.91,NNE,18,6.9,6.9,72,0.00,OVC,,0.12,0.0,WeatherDisplay:10.37,2013-07-27 03:23:00,
2013-07-26 22:28:00,55.2,46.3,29.91,North,353,10.4,10.4,72,0.00,OVC,,0.12,0.0,WeatherDisplay:10.37,2013-07-27 03:28:00,
2013-07-26 22:33:00,55.0,46.5,29.91,NNE,13,6.9,6.9,73,0.00,OVC,,0.12,0.0,WeatherDisplay:10.37,2013-07-27 03:33:00,
2013-07-26 22:38:00,55.0,46.5,29.91,North,4,9.2,9.2,73,0.00,OVC,,0.12,0.0,WeatherDisplay:10.37,2013-07-27 03:38:00,
2013-07-26 22:43:00,54.9,46.0,29.91,North,7,9.2,9.2,72,0.00,OVC,,0.12,0.0,WeatherDisplay:10.37,2013-07-27 03:43:00,
2013-07-26 22:48:00,54.7,45.8,29.91,NE,34,6.9,6.9,72,0.00,OVC,,0.12,0.0,WeatherDisplay:10.37,2013-07-27 03:48:00,
2013-07-26 22:53:00,54.7,45.8,29.91,North,0,6.9,6.9,72,0.00,OVC,,0.12,0.0,WeatherDisplay:10.37,2013-07-27 03:53:00,
2013-07-26 22:58:00,54.5,46.0,29.91,NNE,14,5.8,5.8,73,0.00,OVC,,0.12,0.0,WeatherDisplay:10.37,2013-07-27 03:58:00,
2013-07-26 23:01:00,54.3,45.8,29.91,NNW,348,6.9,6.9,73,0.00,OVC,,0.12,0.0,WeatherDisplay:10.37,2013-07-27 04:01:00,
2013-07-26 23:02:00,54.3,45.8,29.91,NE,34,6.9,6.9,73,0.00,BKN,,0.12,0.0,WeatherDisplay:10.37,2013-07-27 04:02:00,
2013-07-26 23:07:00,54.1,46.0,29.91,NE,40,4.6,0.0,74,0.00,BKN,,0.12,0.0,WeatherDisplay:10.37,2013-07-27 04:07:00,
2013-07-26 23:12:00,54.0,46.2,29.91,North,1,3.5,3.5,75,0.00,BKN,,0.12,0.0,WeatherDisplay:10.37,2013-07-27 04:12:00,
2013-07-26 23:17:00,54.0,46.2,29.91,NNW,345,5.8,5.8,75,0.00,BKN,,0.12,0.0,WeatherDisplay:10.37,2013-07-27 04:17:00,
2013-07-26 23:22:00,54.1,46.4,29.91,NE,39,5.8,5.8,75,0.00,BKN,,0.12,0.0,WeatherDisplay:10.37,2013-07-27 04:22:00,
2013-07-26 23:27:00,54.0,45.9,29.91,NNE,21,3.5,5.4,74,0.00,BKN,,0.12,0.0,WeatherDisplay:10.37,2013-07-27 04:27:00,
2013-07-26 23:32:00,53.8,45.3,29.91,NNE,32,8.1,8.1,73,0.00,OVC,,0.12,0.0,WeatherDisplay:10.37,2013-07-27 04:32:00,
2013-07-26 23:37:00,53.6,45.2,29.91,North,0,6.9,6.9,73,0.00,OVC,,0.12,0.0,WeatherDisplay:10.37,2013-07-27 04:37:00,
2013-07-26 23:42:00,53.4,45.3,29.91,North,1,8.1,8.1,74,0.00,OVC,,0.12,0.0,WeatherDisplay:10.37,2013-07-27 04:42:00,
2013-07-26 23:47:00,53.2,45.2,29.91,North,9,4.6,4.6,74,0.00,OVC,,0.12,0.0,WeatherDisplay:10.37,2013-07-27 04:47:00,
2013-07-26 23:52:00,53.1,45.3,29.91,North,353,4.6,0.0,75,0.00,OVC,,0.12,0.0,WeatherDisplay:10.37,2013-07-27 04:52:00,
2013-07-26 23:57:00,53.1,45.7,29.91,North,8,4.6,0.0,76,0.00,OVC,,0.12,0.0,WeatherDisplay:10.37,2013-07-27 04:57:00,